Overview Statistics Trail Chart Weather Telemetry Raw packets
 

This is the latest recevied weather packets stored in our database for station/object HA5KNF-10. If no packets are shown the sender has not sent any weather packets the latest 10 day(s).

<< 4 5 6 7 8 9 >>
Time Temp. Humidity Pressure Rain* Wind** Luminosity Snow
1788090694 26.11° C 39% 1002.3 hPa - - - -
1788087154 25° C 39% 1002.6 hPa - - - -
1788083614 23.89° C 43% 1003.2 hPa - - - -
1788080074 23.33° C 40% 1003.3 hPa - - - -
1788076534 22.22° C 38% 1003.5 hPa - - - -
1788072993 21.67° C 39% 1003.4 hPa - - - -
1788069453 21.67° C 39% 1003.3 hPa - - - -
1788065913 22.22° C 39% 1003.1 hPa - - - -
1788062373 22.22° C 39% 1002.8 hPa - - - -
1788058833 22.78° C 38% 1002.7 hPa - - - -
1788055293 22.78° C 38% 1002.4 hPa - - - -
1788048212 23.33° C 38% 1002.6 hPa - - - -
1788044672 23.89° C 37% 1002.3 hPa - - - -
1788041132 23.89° C 37% 1002.3 hPa - - - -
1788037592 24.44° C 36% 1002.4 hPa - - - -
1788034052 25° C 36% 1002.2 hPa - - - -
1788030511 25.56° C 38% 1001.9 hPa - - - -
1788027095 25.56° C 36% 1001.6 hPa - - - -
1788023555 25.56° C 36% 1001.2 hPa - - - -
1788006338 25.56° C 38% 1002.1 hPa - - - -
1788002798 25° C 38% 1002.3 hPa - - - -
1787999258 25° C 39% 1002.3 hPa - - - -
1787992178 25° C 39% 1002 hPa - - - -
1787988638 24.44° C 41% 1001.3 hPa - - - -
1787985097 24.44° C 41% 1000.7 hPa - - - -

* Rain since midnight (hover to see other rain measurements)
** Current wind speed in m/s (hover to see current wind gust speed)